weather.gov     
National Weather Service

Terminal Aerodrome Forecast
NWS Homepage
This page is being discontinued on March 12, 2014.
The same data is available at this site. Please update your bookmarks.
Thank you, and we apologize for the inconvenience.
Please send an email to SR-SRH.Webmaster@noaa.gov with any concerns.


Current Version
Previous Version:    01  02  03  04  05  06  07  08  09  10  11  12  13  14  15  16  17  18  19  20  21  22  23  24  25  26  27  
[Printable]
762
FTUS45 KPUB 221131
TAFALS
TAF
KALS 221131Z 2212/2312 VRB06KT P6SM VCSH SCT040 BKN100
     FM221600 34007KT P6SM SCT050 BKN130
     FM222100 32010KT P6SM VCSH SCT030 BKN060
     FM230000 34010KT 5SM -SHSN BR OVC030
     FM230700 VRB06KT P6SM SCT030 BKN100=




762
FTUS45 KPUB 221131
TAFALS
TAF
KALS 221131Z 2212/2312 VRB06KT P6SM VCSH SCT040 BKN100
     FM221600 34007KT P6SM SCT050 BKN130
     FM222100 32010KT P6SM VCSH SCT030 BKN060
     FM230000 34010KT 5SM -SHSN BR OVC030
     FM230700 VRB06KT P6SM SCT030 BKN100=


U.S. Dept. of Commerce
NOAA National Weather Service
1325 East West Highway
Silver Spring, MD 20910
E-mail: w-nws.webmaster@noaa.gov
Page last modified: May 16, 2007
NATIONAL WEATHER SERVICE: for Safety, for Work, for Fun - FOR LIFE